This is the latest recevied weather packets stored in our database for station/object W4MSI. If no packets are shown the sender has not sent any weather packets the latest 10 day(s).
| Time | Temp. | Humidity | Pressure | Rain* | Wind** | Luminosity | Snow |
|---|---|---|---|---|---|---|---|
| 1777662952 | 17.78° C | 34% | 1015.8 hPa | 0 mm | - | 807 W/m² | - |
| 1777662649 | 17.22° C | 40% | 1015.8 hPa | 0 mm | - | 818 W/m² | - |
| 1777662344 | 17.22° C | 31% | 1015.9 hPa | 0 mm | - | 804 W/m² | - |
| 1777662040 | 17.22° C | 32% | 1015.8 hPa | 0 mm | - | 839 W/m² | - |
| 1777661736 | 17.78° C | 35% | 1015.9 hPa | 0 mm | - | 853 W/m² | - |
| 1777661433 | 17.22° C | 35% | 1015.8 hPa | 0 mm | - | 832 W/m² | - |
| 1777661129 | 16.67° C | 34% | 1015.8 hPa | 0 mm | - | 853 W/m² | - |
| 1777660829 | 17.22° C | 34% | 1015.9 hPa | 0 mm | - | 854 W/m² | - |
| 1777660526 | 17.22° C | 37% | 1016.1 hPa | 0 mm | - | 862 W/m² | - |
| 1777660222 | 17.22° C | 34% | 1015.8 hPa | 0 mm | - | 862 W/m² | - |
| 1777659919 | 16.67° C | 33% | 1016 hPa | 0 mm | - | 862 W/m² | - |
| 1777659616 | 16.67° C | 32% | 1016 hPa | 0 mm | - | 862 W/m² | - |
| 1777659313 | 16.67° C | 32% | 1016.1 hPa | 0 mm | - | 862 W/m² | - |
| 1777659010 | 16.67° C | 32% | 1015.6 hPa | 0 mm | - | 873 W/m² | - |
| 1777658708 | 16.67° C | 33% | 1015.6 hPa | 0 mm | - | 872 W/m² | - |
| 1777658403 | 16.67° C | 33% | 1015.9 hPa | 0 mm | - | 876 W/m² | - |
| 1777658100 | 16.67° C | 40% | 1015.7 hPa | 0 mm | - | 822 W/m² | - |
| 1777657797 | 17.22° C | 37% | 1015.8 hPa | 0 mm | - | 862 W/m² | - |
| 1777657495 | 16.67° C | 39% | 1015.9 hPa | 0 mm | - | 873 W/m² | - |
| 1777657192 | 16.67° C | 39% | 1015.8 hPa | 0 mm | - | 834 W/m² | - |
| 1777656890 | 16.11° C | 37% | 1016 hPa | 0 mm | - | 862 W/m² | - |
| 1777656585 | 16.11° C | 39% | 1016.1 hPa | 0 mm | - | 863 W/m² | - |
| 1777656281 | 16.67° C | 39% | 1016.2 hPa | 0 mm | - | 846 W/m² | - |
| 1777655977 | 16.67° C | 44% | 1016.2 hPa | 0 mm | - | 805 W/m² | - |
| 1777655673 | 17.22° C | 40% | 1016.2 hPa | 0 mm | - | 862 W/m² | - |
* Rain latest hour (hover to see other rain measurements)
** Current wind speed in m/s (hover to see current wind gust speed)